STARLINK-36138, 67030

Orbit data source: Space-Track

STARLINK-36138, 67030 is a payload satellite owned by SpaceX/Seattle (US) in LEO that was launched on Thu, 11 Dec 2025 UTC via an FALCON 9 launch vehicle from the Air Force Eastern Test Range (AFETR). Payload-class satellites include a variety of spacecraft equipped with specific instruments for various scientific and technological missions. These include communications satellites like Starlink; space stations such as the ISS; scientific satellites like the Hubble; Earth observation satellites from companies like Planet Labs, Umbra, and HawkEye 360; GPS; miniature CubeSats for education and research; and military/defense satellites.

Loading next visibility...
Identifier
67030, 2025-294A
Orbit
LEO
Country
Flag of USUS
Related business
Manufacturer
SpaceX/Seattle
Mission
Operational Commercial Communications
Bus & Motor
STARLINK V2MO, Unknown motor
Mass
575 kg wet, ~530 kg dry
Launch date (UTC)
2025-12-11 (6 months ago)
Launch vehicle
FALCON 9
Launch site
Air Force Eastern Test Range (AFETR)
Object type
Payload
Rocket body
Debris
Shape & HBR
Box + 2 Pan, 17.7 m
Radar Cross Section
36.964 m², Large (>1 m²)

Expand to show TLE details & history
Last TLE update: 11 hours ago

TLE from 11 hours ago
0 STARLINK-36138
1 67030U 25294A   26171.38339619  .00010908  00000-0  40519-3 0  9997
2 67030  42.9991 178.2271 0001463 273.4144  86.6540 15.27590677 30505
Epoch: 2026-06-20T09:12Z
TLE epoch observation values (Epoch: 2026-06-20T09:12:05.430Z)
Latitude
-0.00005°
Longitude
131.60561°
Altitude
482.734 km
Speed
7.626 km/s
True Right ascension
11h 52m 54s
True Declination
0° 00' 00"
Sunlit
Object was in daylight at epoch
Visualization orbit readout
Latitude
Unknown
Longitude
Unknown
Altitude
Unknown
Speed
Unknown
Apparent Right ascension
Unknown
Apparent Declination
Unknown
Sunlit
N/A
Visualization observer readout
Local Sidereal Time
07:14:52
Azimuth
Unknown
Elevation
Unknown
Doppler factor
Unknown
Orbital elements
Apogee altitude
485.967 km
Perigee altitude
483.958 km
Semi-major axis
6,863.099 km
Eccentricity
0.00015
Inclination
42.9991°
RAAN
178.2271°
Arg. of periapsis
273.4144°
True anomaly
86.67074°
Mean anomaly
86.654°
Eccentric anomaly
86.66237°
Mean motion
3.81736 °/min
Orbital period
94.31 mins
BSTAR
0.00040519
Loading maneuver chart data...
Computing Atmospheric mass density...
Loading historical data...
Loading historical data...
Loading historical data...
Loading historical data...
Loading historical data...
Loading historical data...
Loading historical data...

Documentation

Showing up to 5 results
|